This is the latest recevied weather packets stored in our database for station/object N8TWM-13. If no packets are shown the sender has not sent any weather packets the latest 10 day(s).
| Time | Temp. | Humidity | Pressure | Rain* | Wind** | Luminosity | Snow |
|---|---|---|---|---|---|---|---|
| 1787830711 | 18.89° C | 93% | 1014.5 hPa | 0 mm | - | 32 W/m² | - |
| 1787830410 | 18.89° C | 93% | 1014.3 hPa | 0 mm | - | 27 W/m² | - |
| 1787830105 | 18.89° C | 93% | 1014.2 hPa | 0 mm | - | 25 W/m² | - |
| 1787829804 | 18.89° C | 93% | 1014.3 hPa | 0 mm | - | 21 W/m² | - |
| 1787829499 | 18.33° C | 93% | 1014.3 hPa | 0 mm | - | 16 W/m² | - |
| 1787829195 | 18.89° C | 93% | 1014.3 hPa | 0 mm | - | 12 W/m² | - |
| 1787828890 | 18.33° C | 93% | 1014 hPa | 0 mm | - | 9 W/m² | - |
| 1787828587 | 18.33° C | 93% | 1014.1 hPa | 0 mm | - | 6 W/m² | - |
| 1787828287 | 18.33° C | 93% | 1014.3 hPa | 0 mm | - | 3 W/m² | - |
| 1787827984 | 18.89° C | 93% | 1014.1 hPa | 0 mm | - | 1 W/m² | - |
| 1787827679 | 18.33° C | 93% | 1014.1 hPa | 0 mm | - | 0 W/m² | - |
| 1787827374 | 18.33° C | 93% | 1014.2 hPa | 0 mm | - | 0 W/m² | - |
| 1787827068 | 18.33° C | 93% | 1013.8 hPa | 0 mm | - | 0 W/m² | - |
| 1787826763 | 18.33° C | 93% | 1014 hPa | 0 mm | - | 0 W/m² | - |
| 1787826458 | 18.33° C | 93% | 1014.2 hPa | 0 mm | - | 0 W/m² | - |
| 1787826154 | 18.33° C | 93% | 1014.2 hPa | 0 mm | - | 0 W/m² | - |
| 1787825853 | 18.33° C | 92% | 1014.1 hPa | 0 mm | - | 0 W/m² | - |
| 1787825552 | 18.33° C | 92% | 1014.1 hPa | 0 mm | - | 0 W/m² | - |
| 1787825247 | 18.33° C | 92% | 1013.8 hPa | 0 mm | - | 0 W/m² | - |
| 1787824945 | 18.33° C | 92% | 1013.8 hPa | 0 mm | - | 0 W/m² | - |
| 1787824643 | 18.33° C | 92% | 1013.8 hPa | 0 mm | - | 0 W/m² | - |
| 1787824338 | 18.33° C | 92% | 1014.1 hPa | 0 mm | - | 0 W/m² | - |
| 1787824034 | 18.33° C | 91% | 1014 hPa | 0 mm | - | 0 W/m² | - |
| 1787823729 | 18.33° C | 91% | 1014.1 hPa | 0 mm | - | 0 W/m² | - |
| 1787823428 | 18.89° C | 91% | 1014.2 hPa | 0 mm | - | 0 W/m² | - |
* Rain latest hour (hover to see other rain measurements)
** Current wind speed in m/s (hover to see current wind gust speed)